Location: Beddau
(51.5575°N, 3.3561°W)
Time: 13:57:32
(UTC+00:00)

Cosmos 2278 - Pass Details

Date: 03 March 2021
Orbit: 838 x 854 km, 71.1° (Epoch: 10 April)

Event Time Altitude Azimuth Distance (km) Brightness Sun altitude
Rises 18:31:52 0° 221° (SW) 3,395 7.6 -6.1°
Reaches altitude 10° 18:34:20 10° 225° (SW) 2,466 6.9 -6.5°
Maximum altitude 18:39:56 61° 305° (NW) 967 4.3 -7.4°
Drops below altitude 10° 18:45:36 10° 26° (NNE) 2,491 5.9 -8.3°
Sets 18:48:07 0° 30° (NNE) 3,432 6.6 -8.7°
